{"data":{"norad_id":61045,"intl_designator":"2024-163A","name":"SPACEMOBILE-003","alt_names":[],"object_type":"PAYLOAD","status":"ACTIVE","operator":null,"country":"US","launch_date":"2024-09-12","launch_site_code":"AFETR","launch_vehicle":null,"mission":null,"orbit_class":"UNKNOWN","rcs_meters":null,"size_class":null,"mass_kg":null,"dimensions":null,"purposes":[],"wikipedia_slug":null,"has_3d_model":false,"image_url":null,"decayed_at":null,"tle_current":{"epoch":"2026-05-24T03:56:51.882432Z","epoch_age_seconds":157713,"freshness":"FRESH","line1":"1 61045U 24163A   26144.16448938 -.00045829  00000+0 -20578-2 0  9995","line2":"2 61045  52.9673  59.9021 0006472  52.4454 307.7127 15.20664605 94116","mean_motion":15.20664605,"eccentricity":0.0006472,"inclination_deg":52.9673,"raan_deg":59.9021,"arg_perigee_deg":52.4454,"mean_anomaly_deg":307.7127,"bstar":-0.0020578,"rev_number":9411,"period_min":94.695437459728,"perigee_km":499.38069833272,"apogee_km":508.28872251469,"semimajor_km":6881.9717104237,"source":"CELESTRAK","updated_at":"2026-05-25T13:38:02.279168Z"}}}